YAOGAN-30 05A (43170 NORAD) Tracking and Keplerian Element Data

This shows tracking and keplerian element data for the satellite.

Feedback or suggestion? Click here.




ElementValue
Catalog43170
NameYAOGAN-30 05A
Epoch Orbit43121
Epoch Day354.18650924
Epoch Year2025
RAAN161.0758
Inclination34.9944
Eccentricity0.0003535
Argument of Perigee207.5086
Mean Anonmoly152.5435
Mean Motion15.01580606
Decay Rate1.978E-05
L11 43170U 18011B 25354.18650924 .00001978 00000+0 15174-3 0 9995
L22 43170 34.9944 161.0758 0003535 207.5086 152.5435 15.01580606431210



Live tracking and technical data element details for YAOGAN-30 05A (NORAD 43170). YAOGAN-30 05A can be tracked NOW for your location showing map with azimuth and elevation plus other details from your city location.







IsCatalogInMostPopularTable: catalog: 43170, numindb: 579
Update: records affected: 1



GetName: 43170 YAOGAN-30 05A

Hit Count: updated at: Sat, 07 Mar 2026 07:08:41 GMT